EW4089 Weather Reports


time (UTC)temp
C
wind
direction
speed
KPH
gust
KPH
rain 1hr
cm
rain 24hr
cm
rain mn
cm
humidity
%
barometer
mb
20260510120124 22 96 1.6 4.8 0.00 0.00 0.00 97 1009.8
20260510115558 22 96 1.6 4.8 0.00 0.00 0.00 97 1009.8
20260510114502 22 96 0.0 3.2 0.00 0.00 0.00 97 1009.7
20260510113958 22 96 0.0 4.8 0.00 0.00 0.00 97 1009.6
20260510113711 22 96 1.6 4.8 0.00 0.00 0.00 97 1009.7
20260510112935 22 96 1.6 4.8 0.00 0.00 0.00 97 1009.7
20260510112403 22 96 3.2 9.7 0.00 0.00 0.00 97 1009.5
20260510111905 22 96 4.8 9.7 0.00 0.00 0.00 97 1009.5
20260510111339 22 96 4.8 11.3 0.00 0.00 0.00 97 1009.6
20260510110835 22 96 4.8 11.3 0.00 0.00 0.00 97 1009.5
20260510110305 22 98 1.6 8.0 0.00 0.00 0.00 97 1009.5
20260510105755 21 98 0.0 4.8 0.00 0.00 0.00 97 1009.6
20260510105245 21 98 0.0 0.0 0.00 0.00 0.00 97 1009.5
20260510104950 21 98 1.6 4.8 0.00 0.00 0.00 97 1009.6
20260510104222 21 98 1.6 4.8 0.00 0.00 0.00 97 1009.6
20260510103648 21 98 0.0 4.8 0.00 0.00 0.00 97 1009.5
20260510103148 21 98 0.0 0.0 0.00 0.00 0.00 97 1009.5
20260510102845 21 98 0.0 0.0 0.00 0.00 0.00 97 1009.5
20260510102347 21 98 0.0 0.0 0.00 0.00 0.00 96 1009.5
20260510101546 21 98 0.0 0.0 0.00 0.00 0.00 96 1009.6
20260510101025 21 98 0.0 0.0 0.00 0.00 0.00 96 1009.4
20260510100525 22 98 0.0 0.0 0.00 0.00 0.00 96 1009.4
20260510100006 22 98 0.0 0.0 0.00 0.00 0.00 97 1009.5
20260510095500 22 98 1.6 3.2 0.00 0.00 0.00 96 1009.3
20260510094935 22 98 1.6 4.8 0.00 0.00 0.00 96 1009.2
20260510094426 22 98 1.6 4.8 0.00 0.00 0.00 96 1009.1
20260510093906 22 98 1.6 4.8 0.00 0.00 0.00 96 1009.2
20260510093400 22 98 1.6 4.8 0.00 0.00 0.00 96 1009.4
20260510092831 22 98 1.6 4.8 0.00 0.00 0.00 96 1009.2
20260510092306 22 98 1.6 9.7 0.00 0.00 0.00 96 1009.1
20260510091800 22 98 3.2 9.7 0.00 0.00 0.00 96 1009.1
20260510090741 22 98 4.8 11.3 0.00 0.00 0.00 96 1009.3
20260510090220 22 98 6.4 11.3 0.00 0.00 0.00 96 1009.1
20260510085712 22 98 8.0 11.3 0.00 0.00 0.00 96 1009.0
20260510085153 22 98 6.4 11.3 0.00 0.00 0.00 96 1009.1
20260510084646 22 96 6.4 11.3 0.00 0.00 0.00 96 1009.1
20260510084124 22 96 4.8 11.3 0.00 0.00 0.00 96 1009.3
20260510083624 22 95 1.6 8.0 0.00 0.00 0.00 96 1009.3
20260510083322 22 95 1.6 8.0 0.00 0.00 0.00 95 1009.4
20260510082538 22 95 3.2 8.0 0.00 0.00 0.00 95 1009.5
20260510082027 22 95 3.2 8.0 0.00 0.00 0.00 95 1009.4
20260510081006 22 95 3.2 8.0 0.00 0.00 0.00 95 1009.6
20260510080436 22 95 4.8 9.7 0.00 0.00 0.00 95 1009.4
20260510075933 22 95 6.4 9.7 0.00 0.00 0.00 95 1009.4
20260510075403 22 95 6.4 11.3 0.00 0.00 0.00 95 1009.4
20260510074841 22 95 6.4 11.3 0.00 0.00 0.00 95 1009.3
20260510074336 22 94 8.0 12.9 0.00 0.00 0.00 95 1009.3
20260510073804 22 94 8.0 12.9 0.00 0.00 0.00 95 1009.4
20260510073237 22 94 6.4 11.3 0.00 0.00 0.00 95 1009.3
20260510072702 22 93 6.4 11.3 0.00 0.00 0.00 95 1009.2
20260510072134 22 85 4.8 11.3 0.00 0.00 0.00 95 1009.2
20260510071558 22 85 4.8 9.7 0.00 0.00 0.00 95 1009.1
20260510071248 22 85 6.4 11.3 0.00 0.00 0.00 95 1009.1
20260510070531 22 85 4.8 11.3 0.00 0.00 0.00 95 1009.2
20260510070003 22 85 4.8 9.7 0.00 0.00 0.00 94 1009.5
20260510065453 22 85 4.8 11.3 0.00 0.00 0.00 94 1009.5
20260510064949 23 85 6.4 11.3 0.00 0.00 0.00 95 1009.4
20260510064443 22 84 8.0 12.9 0.00 0.00 0.00 94 1009.4
20260510063918 22 84 6.4 12.9 0.00 0.00 0.00 94 1009.7
20260510063352 22 82 6.4 11.3 0.00 0.00 0.00 94 1009.7
20260510063104 22 82 6.4 9.7 0.00 0.00 0.00 93 1009.7
20260510062322 22 82 6.4 11.3 0.00 0.00 0.00 93 1009.9
20260510061820 22 82 6.4 11.3 0.00 0.00 0.00 93 1009.9
20260510061251 22 82 6.4 11.3 0.00 0.00 0.00 92 1009.9
20260510060743 22 82 8.0 12.9 0.00 0.00 0.00 92 1010.0
20260510060223 22 82 9.7 12.9 0.00 0.00 0.00 92 1010.1
20260510055720 22 82 9.7 14.5 0.00 0.00 0.00 91 1010.2
20260510055413 22 82 9.7 14.5 0.00 0.00 0.00 91 1010.2
20260510054649 22 83 8.0 12.9 0.00 0.00 0.00 90 1010.1
20260510054120 22 83 8.0 12.9 0.00 0.00 0.00 90 1010.0
20260510053619 23 83 6.4 12.9 0.00 0.00 0.00 90 1010.1
20260510053052 23 84 4.8 11.3 0.00 0.00 0.00 90 1010.1
20260510052814 23 84 6.4 11.3 0.00 0.00 0.00 89 1009.9
20260510052017 23 84 6.4 11.3 0.00 0.00 0.00 89 1010.1
20260510051520 23 84 6.4 12.9 0.00 0.00 0.00 89 1009.8
20260510051016 23 84 4.8 12.9 0.00 0.00 0.00 88 1009.7
20260510050509 23 84 6.4 11.3 0.00 0.00 0.00 88 1009.5
20260510045959 23 84 8.0 12.9 0.00 0.00 0.00 88 1009.5
20260510045438 23 84 8.0 12.9 0.00 0.00 0.00 88 1009.5
20260510044934 23 84 9.7 16.1 0.00 0.00 0.00 87 1009.5
20260510044402 23 84 8.0 16.1 0.00 0.00 0.00 86 1009.7
20260510043902 23 88 8.0 12.9 0.00 0.00 0.00 85 1009.7
20260510043354 24 88 8.0 12.9 0.00 0.00 0.00 84 1009.7
20260510042828 24 88 4.8 12.9 0.00 0.00 0.00 83 1009.7
20260510042301 25 138 3.2 8.0 0.00 0.00 0.00 82 1009.5
20260510042017 25 139 3.2 6.4 0.00 0.00 0.00 82 1009.3
20260510041258 25 139 3.2 6.4 0.00 0.00 0.00 82 1009.2
20260510041015 24 139 3.2 9.7 0.00 0.00 0.00 83 1009.3
20260510040217 24 139 4.8 9.7 0.00 0.00 0.00 82 1008.8
20260510035647 24 139 6.4 9.7 0.00 0.00 0.00 82 1008.6
20260510035120 25 139 6.4 9.7 0.00 0.00 0.00 82 1008.5
20260510034839 25 139 6.4 9.7 0.00 0.00 0.00 82 1008.6
20260510034051 25 139 6.4 9.7 0.00 0.00 0.00 81 1008.6
20260510033544 25 139 4.8 9.7 0.00 0.00 0.00 80 1008.5
20260510033303 25 138 4.8 9.7 0.00 0.00 0.00 79 1008.6
20260510032732 25 138 6.4 9.7 0.00 0.00 0.00 79 1008.5
20260510031947 26 138 6.4 9.7 0.00 0.00 0.00 79 1008.5
20260510031440 26 138 4.8 8.0 0.00 0.00 0.00 78 1008.4
20260510030934 26 138 3.2 8.0 0.00 0.00 0.00 78 1008.3
20260510030426 26 138 4.8 8.0 0.00 0.00 0.00 78 1008.4
20260510025905 26 138 4.8 8.0 0.00 0.00 0.00 77 1008.2
20260510025557 26 137 4.8 8.0 0.00 0.00 0.00 77 1008.2
20260510025055 26 137 4.8 8.0 0.00 0.00 0.00 77 1008.0
20260510024333 26 138 4.8 8.0 0.00 0.00 0.00 76 1008.1
20260510023829 26 138 3.2 8.0 0.00 0.00 0.00 77 1008.0
20260510023320 27 138 3.2 8.0 0.00 0.00 0.00 76 1008.1
20260510022749 27 138 3.2 8.0 0.00 0.00 0.00 76 1007.8
20260510022238 27 138 4.8 6.4 0.00 0.00 0.00 76 1007.9
20260510021725 27 138 4.8 8.0 0.00 0.00 0.00 76 1007.7
20260510021424 27 138 4.8 8.0 0.00 0.00 0.00 75 1007.8
20260510020655 27 138 4.8 11.3 0.00 0.00 0.00 75 1007.8
20260510020154 27 141 6.4 11.3 0.00 0.00 0.00 75 1007.8
20260510015905 27 141 6.4 11.3 0.00 0.00 0.00 75 1007.6
20260510015119 27 140 6.4 12.9 0.00 0.00 0.00 75 1007.6
20260510014551 27 138 6.4 12.9 0.00 0.00 0.00 75 1007.4
20260510014052 28 163 8.0 12.9 0.00 0.00 0.00 74 1007.3
20260510013550 28 153 9.7 16.1 0.00 0.00 0.00 74 1006.9
20260510013309 28 181 9.7 16.1 0.00 0.00 0.00 74 1006.6
20260510012541 28 148 9.7 20.9 0.00 0.00 0.00 74 1006.6
20260510012008 28 144 9.7 22.5 0.00 0.00 0.00 74 1006.4
20260510011440 28 173 9.7 17.7 0.00 0.00 0.00 73 1006.2
20260510010910 28 157 11.3 19.3 0.00 0.00 0.00 73 1006.2
20260510010405 28 188 11.3 19.3 0.00 0.00 0.00 73 1006.2
20260510005835 29 168 9.7 17.7 0.00 0.00 0.00 71 1006.4
20260510005309 30 186 8.0 16.1 0.00 0.00 0.00 70 1006.7
20260510004800 30 153 4.8 9.7 0.00 0.00 0.00 69 1006.9
20260510004259 30 154 4.8 9.7 0.00 0.00 0.00 67 1006.9
20260510003733 31 152 4.8 9.7 0.00 0.00 0.00 67 1006.8
20260510003230 31 152 4.8 11.3 0.00 0.00 0.00 66 1006.9
20260510002658 31 154 6.4 11.3 0.00 0.00 0.00 66 1006.8
20260510002147 31 155 6.4 14.5 0.00 0.00 0.00 66 1006.7
20260510001646 31 155 8.0 14.5 0.00 0.00 0.00 65 1006.6
20260510001122 31 150 9.7 12.9 0.00 0.00 0.00 65 1006.6
20260510000553 31 158 8.0 14.5 0.00 0.00 0.00 64 1006.5
20260510000024 31 174 8.0 16.1 0.00 0.00 0.00 64 1006.5
20260509235517 31 130 8.0 17.7 0.00 0.00 0.00 63 1006.5
20260509235015 31 171 9.7 19.3 0.00 0.00 0.00 63 1006.5
20260509234502 31 154 9.7 19.3 0.00 0.00 0.00 63 1006.5
20260509234231 32 128 9.7 17.7 0.00 0.00 0.00 63 1006.6
20260509233454 32 81 9.7 16.1 0.00 0.00 0.00 63 1006.6
20260509233146 32 170 11.3 17.7 0.00 0.00 0.00 62 1006.5
20260509231846 32 178 9.7 17.7 0.00 0.00 0.00 59 1006.4
20260509231539 32 98 9.7 17.7 0.00 0.00 0.00 59 1006.3
20260509231015 32 98 8.0 17.7 0.00 0.00 0.00 60 1006.3
20260509230247 32 150 8.0 17.7 0.00 0.00 0.00 61 1006.3
20260509225941 32 149 9.7 17.7 0.00 0.00 0.00 61 1006.2
20260509225211 32 179 9.7 17.7 0.00 0.00 0.00 60 1006.1
20260509224645 32 143 9.7 17.7 0.00 0.00 0.00 61 1006.3
20260509224111 32 107 9.7 19.3 0.00 0.00 0.00 62 1006.2
20260509223540 32 148 9.7 19.3 0.00 0.00 0.00 62 1006.2
20260509223029 32 132 8.0 16.1 0.00 0.00 0.00 62 1006.1
20260509222532 32 111 9.7 16.1 0.00 0.00 0.00 60 1006.1
20260509222013 32 76 9.7 20.9 0.00 0.00 0.00 60 1006.2
20260509221517 32 119 9.7 20.9 0.00 0.00 0.00 60 1006.2
20260509221230 32 103 9.7 22.5 0.00 0.00 0.00 60 1006.3
20260509220514 32 104 9.7 22.5 0.00 0.00 0.00 61 1006.3
20260509220014 32 94 8.0 14.5 0.00 0.00 0.00 62 1006.3
20260509215514 32 101 9.7 16.1 0.00 0.00 0.00 62 1006.4
20260509215014 32 99 9.7 19.3 0.00 0.00 0.00 62 1006.3
20260509214514 32 111 9.7 19.3 0.00 0.00 0.00 63 1006.3
20260509213940 32 68 9.7 14.5 0.00 0.00 0.00 62 1006.3
20260509213412 32 68 9.7 16.1 0.00 0.00 0.00 62 1006.4
20260509212841 32 74 8.0 17.7 0.00 0.00 0.00 63 1006.3
20260509212310 32 71 9.7 17.7 0.00 0.00 0.00 63 1006.3
20260509211737 32 86 11.3 17.7 0.00 0.00 0.00 62 1006.4
20260509211203 32 77 6.4 16.1 0.00 0.00 0.00 62 1006.4
20260509210656 32 92 4.8 11.3 0.00 0.00 0.00 63 1006.3
20260509210146 32 92 8.0 16.1 0.00 0.00 0.00 62 1006.4
20260509205629 32 101 8.0 16.1 0.00 0.00 0.00 61 1006.5
20260509205126 32 83 6.4 12.9 0.00 0.00 0.00 61 1006.4
20260509204853 32 83 6.4 12.9 0.00 0.00 0.00 61 1006.5
20260509203821 32 82 6.4 12.9 0.00 0.00 0.00 61 1006.6
20260509203052 32 35 6.4 14.5 0.00 0.00 0.00 61 1006.7
20260509202527 32 60 4.8 14.5 0.00 0.00 0.00 62 1006.7
20260509201959 32 81 4.8 12.9 0.00 0.00 0.00 63 1006.7
20260509201723 32 80 6.4 12.9 0.00 0.00 0.00 63 1006.8
20260509201003 32 80 8.0 16.1 0.00 0.00 0.00 63 1006.9
20260509200437 32 80 8.0 16.1 0.00 0.00 0.00 63 1006.9
20260509200131 33 90 3.2 12.9 0.00 0.00 0.00 62 1007.0
20260509195407 32 158 3.2 9.7 0.00 0.00 0.00 64 1007.2
20260509194904 32 158 4.8 9.7 0.00 0.00 0.00 65 1007.2
20260509194400 32 157 6.4 20.9 0.00 0.00 0.00 65 1007.2
20260509193859 32 157 6.4 20.9 0.00 0.00 0.00 66 1007.3
20260509193622 32 98 4.8 11.3 0.00 0.00 0.00 66 1007.3
20260509192835 32 77 4.8 9.7 0.00 0.00 0.00 65 1007.4
20260509192335 32 79 6.4 11.3 0.00 0.00 0.00 65 1007.3
20260509191305 31 80 4.8 12.9 0.00 0.00 0.00 65 1007.5
20260509190803 31 62 4.8 8.0 0.00 0.00 0.00 66 1007.5
20260509190236 31 61 4.8 12.9 0.00 0.00 0.00 67 1007.4
20260509185714 31 50 4.8 11.3 0.00 0.00 0.00 67 1007.5
20260509185431 31 355 3.2 8.0 0.00 0.00 0.00 68 1007.7
20260509184706 31 355 3.2 8.0 0.00 0.00 0.00 68 1007.6
20260509184204 31 355 4.8 11.3 0.00 0.00 0.00 69 1007.8
20260509183656 31 351 4.8 11.3 0.00 0.00 0.00 69 1007.8
20260509183152 31 31 3.2 11.3 0.00 0.00 0.00 70 1007.7
20260509182630 31 301 3.2 11.3 0.00 0.00 0.00 70 1007.9
20260509182129 30 301 6.4 14.5 0.00 0.00 0.00 71 1007.9
20260509181630 30 302 4.8 14.5 0.00 0.00 0.00 72 1008.1
20260509180547 30 296 4.8 8.0 0.00 0.00 0.00 72 1008.1
20260509180047 30 296 6.4 12.9 0.00 0.00 0.00 73 1008.3
20260509175527 30 5 6.4 12.9 0.00 0.00 0.00 73 1008.5
20260509175024 30 342 4.8 12.9 0.00 0.00 0.00 72 1008.4
20260509174456 30 351 3.2 8.0 0.00 0.00 0.00 72 1008.4
20260509173948 30 280 3.2 9.7 0.00 0.00 0.00 72 1008.7
20260509173429 30 280 4.8 11.3 0.00 0.00 0.00 72 1008.7
20260509173122 30 304 8.0 14.5 0.00 0.00 0.00 74 1008.6
20260509172548 29 355 6.4 14.5 0.00 0.00 0.00 75 1008.7
20260509171815 29 46 6.4 12.9 0.00 0.00 0.00 75 1008.6
20260509171314 29 27 6.4 14.5 0.00 0.00 0.00 75 1008.7
20260509170806 29 355 6.4 14.5 0.00 0.00 0.00 75 1008.7
20260509170307 29 342 4.8 12.9 0.00 0.00 0.00 75 1008.9
20260509165746 29 338 8.0 14.5 0.00 0.00 0.00 75 1008.7
20260509165220 29 337 6.4 14.5 0.00 0.00 0.00 76 1008.7
20260509164912 28 348 6.4 11.3 0.00 0.00 0.00 76 1008.7
20260509164118 28 285 4.8 11.3 0.00 0.00 0.00 76 1008.8
20260509163605 28 17 4.8 11.3 0.00 0.00 0.00 77 1008.4
20260509163039 28 26 4.8 9.7 0.00 0.00 0.00 80 1008.5
20260509162748 28 5 6.4 11.3 0.00 0.00 0.00 79 1008.6
20260509162028 28 9 6.4 11.3 0.00 0.00 0.00 80 1008.5
20260509161527 27 295 6.4 11.3 0.00 0.00 0.00 80 1008.6
20260509161221 27 355 6.4 11.3 0.00 0.00 0.00 81 1008.7
20260509160436 27 5 6.4 6.4 0.00 0.00 0.00 81 1008.8
20260509155951 27 5 4.8 9.7 0.00 0.00 0.00 83 1008.7
20260509155425 27 290 4.8 9.7 0.00 0.00 0.00 83 1008.8
20260509154904 27 286 4.8 11.3 0.00 0.00 0.00 85 1009.0
20260509154353 26 237 3.2 9.7 0.00 0.00 0.00 87 1008.8
20260509153826 26 237 3.2 9.7 0.00 0.00 0.00 88 1008.9
20260509153308 26 242 3.2 8.0 0.00 0.00 0.00 89 1009.1
20260509152737 26 242 4.8 8.0 0.00 0.00 0.00 90 1008.8
20260509152233 25 240 4.8 8.0 0.00 0.00 0.00 91 1009.1
20260509151730 25 171 6.4 9.7 0.00 0.00 0.00 91 1008.5
20260509151205 25 171 6.4 11.3 0.00 0.00 0.00 92 1008.2
20260509150642 25 186 3.2 11.3 0.00 0.00 0.00 92 1007.7
20260509150134 25 242 0.0 6.4 0.00 0.00 0.00 92 1008.1
20260509145607 25 243 3.2 6.4 0.00 0.00 0.00 93 1008.4
20260509145042 25 242 4.8 8.0 0.00 0.00 0.00 93 1008.2
20260509144521 25 242 6.4 9.7 0.00 0.00 0.00 93 1008.2
20260509144020 25 243 4.8 9.7 0.00 0.00 0.00 93 1008.2
20260509143747 25 259 3.2 8.0 0.00 0.00 0.00 93 1008.4
20260509143002 25 259 3.2 4.8 0.00 0.00 0.00 93 1008.5
20260509142452 25 259 3.2 6.4 0.00 0.00 0.00 93 1008.5
20260509141931 25 259 4.8 6.4 0.00 0.00 0.00 93 1008.5
20260509141404 25 259 4.8 11.3 0.00 0.00 0.00 94 1008.2
20260509140838 25 0 4.8 9.7 0.00 0.00 0.00 94 1007.9
20260509140309 25 5 3.2 6.4 0.00 0.00 0.00 94 1007.9
20260509135738 25 5 1.6 4.8 0.00 0.00 0.00 94 1008.1
20260509135235 25 9 0.0 3.2 0.00 0.00 0.00 94 1008.4
20260509134712 25 9 1.6 6.4 0.00 0.00 0.00 94 1008.4
20260509134150 25 9 1.6 6.4 0.00 0.00 0.00 94 1008.5
20260509133650 25 9 3.2 9.7 0.00 0.00 0.00 94 1008.5
20260509133151 25 9 4.8 9.7 0.00 0.00 0.00 94 1008.2
20260509132627 25 5 4.8 8.0 0.00 0.00 0.00 94 1008.3
20260509132055 25 5 3.2 8.0 0.00 0.00 0.00 94 1008.4
20260509131556 25 5 4.8 9.7 0.00 0.00 0.00 95 1008.2
20260509131301 25 5 6.4 11.3 0.00 0.00 0.00 95 1008.4
20260509130526 25 340 4.8 9.7 0.00 0.00 0.00 95 1008.3
20260509130025 25 340 4.8 16.1 0.00 0.00 0.00 95 1008.5
20260509125523 24 339 8.0 16.1 0.00 0.00 0.00 95 1008.3
20260509125026 24 344 8.0 20.9 0.00 0.00 0.00 96 1008.3
20260509124523 24 329 9.7 20.9 0.00 0.00 0.00 96 1008.6
20260509124013 24 317 12.9 22.5 0.00 0.00 0.00 97 1008.6
20260509123511 24 283 14.5 25.7 0.00 0.00 0.00 97 1008.4
20260509123014 24 321 11.3 27.4 0.00 0.00 0.00 97 1008.2
20260509122718 24 14 8.0 27.4 0.00 0.00 0.00 98 1007.9
20260509121951 24 126 14.5 41.8 0.00 0.00 0.00 98 1007.4
20260509121455 24 146 24.1 41.8 0.00 0.00 0.00 98 1006.1
20260509120940 24 87 24.1 40.2 0.00 0.00 0.00 98 1005.3